Temp
1 2 2 2 2 2 2 2 3 3 3 3 3 3 3 3 3 3 2 2 3 3 3 3 3 3 3 3 4 4 4 4 5 5 5 5 6 6 6 6 6 6 6 6 6 7 7 7 7 7 7 7 7 7 7 7 8 8 8 8 8 8 8 8 8 8 8 8 8
1 1 1 2 2 2 2 2 2 2 2 3 3 3 3 3 3 3 3 2 2 3 3 3 3 3 3 4 4 4 4 4 5 5 5 5 5 6 6 6 6 6 6 6 6 7 7 7 7 7 7 7 7 7 7 7 7 7 7 8 8 8 8 8 8 8 8 7 7
1 1 1 1 1 1 2 2 2 2 2 2 3 3 3 3 3 3 3 3 2 2 3 3 3 3 3 4 4 4 4 4 4 5 5 5 5 5 5 6 6 6 6 6 6 6 7 7 7 7 7 7 7 7 7 7 7 7 7 7 7 7 7 7 7 7 7 7 7
0 1 1 1 1 1 1 1 2 2 2 2 3 3 3 3 3 3 3 3 3 3 3 3 3 3 3 3 3 4 4 4 4 4 4 5 5 5 5 5 6 6 6 6 6 6 6 7 7 7 7 7 7 7 7 7 7 7 7 7 7 7 7 7 7 7 7 6 6
0 0 1 1 1 1 1 1 1 2 2 2 2 2 2 2 2 2 3 3 2 2 2 3 3 3 3 3 3 3 3 3 4 4 4 4 4 5 5 5 5 6 6 6 6 6 6 6 6 7 6 6 6 6 6 7 7 6 6 7 7 7 6 6 6 6 6 6 6
0 0 0 0 0 0 0 1 1 2 2 2 2 2 2 2 2 2 2 2 2 2 2 2 2 2 3 3 3 3 3 3 3 3 3 4 4 4 4 4 5 5 5 5 5 5 5 5 5 5 5 5 5 5 5 5 5 5 5 6 6 6 6 5 5 5 5 5 4
-0 -0 -0 -0 0 0 0 1 1 1 1 1 1 1 1 1 1 2 2 2 2 2 2 2 2 2 2 2 2 2 2 2 2 2 3 3 3 3 3 3 4 4 4 4 4 4 4 4 4 4 4 4 4 4 4 4 4 4 4 4 5 5 5 4 4 4 4 3 3
-0 -0 -0 -0 -0 0 0 0 1 1 1 1 1 1 1 1 1 1 2 2 1 1 1 2 2 2 2 2 2 2 2 2 2 2 2 2 2 2 2 2 3 3 3 3 3 3 3 2 2 2 2 2 2 2 2 2 2 3 3 3 3 3 3 3 3 3 3 2 2
-0 -0 -0 -0 -0 -0 0 0 0 0 0 0 0 0 1 1 1 1 1 1 1 1 1 1 1 1 1 2 2 2 1 1 1 1 1 1 1 1 1 2 2 2 2 2 2 2 1 1 1 1 1 1 1 1 1 1 1 2 2 2 2 2 2 2 2 2 2 2 1
-0 -0 -0 -0 -0 -0 -0 -0 -0 0 0 0 0 0 0 0 1 1 1 1 1 1 1 1 1 1 1 1 1 1 1 1 1 1 1 1 1 1 1 1 1 1 1 1 1 1 0 0 0 1 0 0 1 1 1 1 1 2 2 2 2 2 2 2 2 2 2 1 1
-0 -0 -0 -0 -0 -0 -0 -0 -0 -0 -0 -0 -0 -0 0 0 0 0 1 1 1 1 1 1 1 1 1 1 1 1 1 1 1 1 1 1 1 0 0 1 1 1 1 1 1 1 0 0 1 1 1 1 1 1 2 2 2 2 2 2 2 2 2 2 2 2 2 2 2
-1 -1 -1 -1 -1 -1 -1 -1 -1 -1 -1 -0 -0 -0 -0 -0 -0 0 0 0 0 1 1 1 1 1 1 1 1 1 1 0 0 0 1 1 1 1 1 1 1 1 1 1 1 1 1 1 1 1 1 1 1 2 2 2 2 2 2 2 2 2 2 2 2 2 2 2 2
-1 -1 -1 -1 -1 -1 -1 -1 -1 -1 -1 -1 -1 -0 -0 -0 -0 -0 -0 -0 0 0 0 0 0 0 0 0 0 0 0 0 0 0 0 0 1 1 1 1 1 1 1 1 1 1 1 1 1 1 1 1 1 2 2 2 2 2 2 2 2 2 2 2 2 2 2 2 2
-1 -1 -1 -1 -1 -1 -1 -1 -2 -2 -1 -1 -1 -1 -1 -1 -0 -0 -0 -0 0 0 0 0 0 0 0 0 0 0 0 0 -0 -0 0 0 0 0 1 1 1 1 1 1 1 1 1 1 1 1 1 1 1 1 1 1 2 2 2 2 2 2 2 2 2 2 2 2 2
-1 -1 -2 -2 -1 -1 -1 -1 -2 -2 -2 -2 -1 -1 -1 -1 -1 -0 -0 -0 -0 -0 -0 -0 -0 -0 -0 -0 -0 -0 -0 -0 -0 -0 -0 0 0 0 0 0 0 1 1 1 1 1 1 1 1 1 1 1 1 1 1 1 1 1 1 2 2 2 2 2 2 2 2 2 3
-1 -1 -1 -1 -1 -1 -1 -1 -1 -1 -1 -1 -1 -1 -1 -1 -1 -1 -1 -0 -0 -0 -0 -0 -0 -0 -0 -0 -0 -0 -0 -1 -0 -0 -0 -0 0 0 0 0 0 0 1 1 1 1 1 1 1 1 1 1 1 1 1 1 1 1 1 1 2 2 2 2 2 2 2 2 3
-1 -1 -1 -1 -1 -1 -1 -1 -1 -1 -1 -1 -1 -1 -1 -1 -1 -2 -1 -1 -0 -0 -0 -0 -0 -0 -0 -1 -1 -1 -1 -1 -1 -0 -0 -0 0 0 0 0 0 0 0 1 1 1 1 1 1 1 1 1 1 1 1 1 1 1 1 1 2 2 2 2 2 2 2 2 2
-1 -1 -1 -1 -1 -1 -1 -1 -1 -1 -1 -1 -1 -1 -1 -1 -1 -1 -1 -1 -1 -1 -0 -0 -1 -1 -1 -1 -1 -1 -1 -1 -1 -0 -0 -0 -0 0 0 0 0 0 0 0 1 1 1 1 1 1 1 1 1 1 1 1 1 1 1 1 2 2 2 2 2 2 2 2 2
-1 -1 -1 -1 -1 -1 -1 -1 -1 -1 -1 -1 -1 -1 -2 -2 -2 -2 -1 -1 -1 -1 -1 -1 -1 -1 -1 -1 -1 -1 -1 -1 -1 -1 -0 -0 -0 -0 0 0 0 0 0 0 1 1 1 1 1 1 1 1 1 1 1 1 1 1 1 1 1 2 2 2 2 2 2 2 2
-1 -1 -1 -1 -1 -1 -1 -1 -1 -1 -1 -1 -1 -2 -2 -2 -2 -2 -2 -1 -1 -1 -1 -1 -1 -1 -1 -1 -1 -1 -1 -1 -1 -1 -1 -1 -0 -0 -0 -0 0 0 0 0 1 1 1 1 1 1 1 1 1 1 1 1 1 1 1 1 1 1 2 2 2 2 2 2 2
-1 -1 -1 -1 -1 -1 -1 -1 -1 -1 -1 -1 -1 -2 -2 -2 -2 -2 -2 -1 -1 -1 -1 -1 -1 -1 -1 -1 -1 -1 -1 -1 -1 -1 -1 -1 -0 -0 -0 -0 -0 0 0 0 0 1 1 1 1 1 1 1 1 1 1 1 1 1 1 1 1 1 1 1 2 2 2 2 2
-1 -1 -1 -1 -1 -1 -1 -1 -1 -1 -1 -1 -2 -2 -2 -2 -2 -2 -2 -2 -1 -1 -1 -1 -1 -1 -1 -1 -1 -1 -1 -1 -1 -1 -1 -0 -0 -0 -0 -0 -0 -0 0 0 0 0 0 1 1 1 1 1 1 1 1 1 1 1 1 1 1 1 1 1 1 2 2 2 2
-1 -1 -1 -1 -1 -1 -1 -1 -1 -1 -1 -1 -1 -2 -2 -2 -2 -2 -2 -2 -2 -1 -1 -1 -1 -1 -1 -0 -0 -0 -0 -0 -0 -0 -0 -0 -0 -0 -0 -0 -0 0 0 0 0 0 0 0 0 1 1 1 1 1 1 1 1 1 1 1 1 1 1 1 1 1 1 2 2
-1 -1 -1 -1 -1 -1 -1 -1 -1 -1 -1 -1 -1 -1 -1 -2 -2 -2 -2 -2 -2 -2 -1 -1 -1 -1 -1 -1 -0 -0 -0 -0 -0 -0 0 0 0 -0 -0 -0 -0 0 0 0 0 0 0 0 0 0 1 1 1 1 1 1 1 1 1 1 1 1 1 1 1 1 1 1 1
-1 -1 -1 -1 -1 -1 -1 -1 -1 -1 -1 -1 -1 -1 -1 -2 -2 -2 -2 -2 -2 -2 -2 -1 -1 -1 -1 -1 -1 -0 -0 -0 -0 0 0 0 0 0 0 -0 -0 0 0 0 0 0 0 0 0 0 0 1 1 1 1 1 1 1 1 1 1 1 1 1 1 1 1 1 1
-1 -1 -1 -1 -1 -1 -1 -1 -1 -1 -1 -1 -1 -1 -1 -2 -2 -2 -2 -2 -2 -2 -2 -2 -2 -1 -1 -1 -1 -1 -1 -0 -0 0 0 0 0 0 0 0 0 0 0 0 0 0 0 0 0 0 0 0 0 1 1 1 1 1 1 1 1 1 1 1 1 1 1 1 1
-1 -1 -1 -1 -1 -1 -1 -1 -1 -1 -1 -1 -1 -1 -1 -2 -2 -2 -2 -2 -2 -2 -2 -2 -2 -2 -2 -2 -2 -1 -1 -1 -0 0 0 0 0 0 0 0 0 0 0 0 0 0 0 0 0 0 0 0 0 0 0 0 0 0 0 0 0 0 1 1 1 1 1 1 1
-1 -1 -1 -1 -1 -1 -1 -1 -1 -1 -1 -1 -1 -1 -1 -1 -1 -2 -2 -2 -2 -2 -2 -2 -2 -2 -2 -2 -2 -2 -1 -1 -0 0 0 0 0 0 0 0 0 0 0 0 0 0 0 0 -0 -0 -0 0 0 0 0 0 0 0 0 0 0 0 0 1 1 1 1 1 1
-1 -1 -1 -1 -1 -1 -1 -1 -1 -1 -1 -1 -1 -1 -1 -1 -1 -1 -2 -2 -2 -2 -2 -2 -2 -2 -2 -2 -2 -2 -1 -1 -0 0 0 1 0 0 0 0 0 0 0 0 0 0 -0 -0 -0 -0 -0 -0 -0 -0 -0 -0 -0 -0 -0 -0 0 0 0 0 1 1 1 1 1
-1 -1 -1 -1 -1 -1 -1 -1 -1 -1 -1 -1 -1 -1 -1 -1 -1 -1 -2 -2 -2 -2 -2 -2 -2 -2 -2 -2 -2 -1 -1 -1 -0 0 0 0 0 -0 -0 -0 -0 -0 0 -0 -0 -0 -0 -0 -0 -1 -1 -1 -1 -1 -0 -0 -0 -0 -0 -0 -0 -0 0 0 0 1 1 1 1
-1 -1 -1 -1 -1 -1 -1 -1 -1 -1 -1 -1 -1 -1 -1 -1 -1 -2 -2 -2 -2 -2 -2 -2 -2 -2 -2 -2 -1 -1 -1 -0 -0 -0 -0 -0 -0 -1 -1 -1 -1 -0 -0 -0 -0 -0 -1 -1 -1 -1 -1 -1 -1 -1 -1 -1 -1 -1 -1 -1 -0 -0 -0 -0 0 0 0 0 1
-1 -1 -1 -1 -1 -1 -1 -1 -1 -1 -1 -1 -1 -1 -1 -1 -2 -2 -2 -2 -2 -2 -2 -2 -2 -2 -2 -1 -1 -1 -0 -0 -0 -1 -1 -1 -1 -1 -1 -1 -1 -1 -1 -1 -1 -1 -1 -1 -1 -1 -1 -1 -1 -1 -1 -1 -1 -1 -1 -1 -1 -1 -0 -0 -0 -0 0 0 0
-1 -1 -1 -1 -1 -1 -1 -1 -1 -1 -1 -1 -1 -1 -1 -1 -2 -2 -2 -2 -2 -2 -2 -1 -1 -1 -1 -1 -1 -1 -1 -1 -1 -1 -1 -1 -1 -1 -1 -1 -1 -1 -1 -1 -1 -1 -1 -1 -1 -1 -1 -1 -1 -1 -1 -1 -1 -1 -1 -1 -1 -1 -1 -1 -0 -0 -0 -0 0
-1 -1 -1 -1 -1 -1 -1 -1 -1 -1 -1 -1 -1 -1 -1 -1 -1 -1 -1 -1 -1 -1 -1 -1 -1 -1 -1 -1 -1 -1 -1 -1 -2 -2 -2 -2 -2 -2 -2 -2 -1 -1 -1 -1 -1 -1 -1 -1 -1 -1 -1 -1 -1 -1 -1 -1 -1 -1 -1 -1 -1 -1 -1 -1 -1 -0 -0 -0 -0
-1 -1 -1 -1 -1 -1 -1 -1 -1 -1 -1 -1 -1 -1 -1 -1 -1 -1 -1 -1 -1 -1 -1 -1 -1 -1 -1 -1 -1 -1 -2 -2 -2 -2 -2 -2 -2 -2 -2 -2 -1 -1 -1 -1 -1 -1 -1 -1 -1 -1 -1 -1 -1 -1 -1 -1 -1 -1 -1 -1 -1 -1 -1 -1 -1 -1 -1 -1 -0
-1 -1 -1 -1 -1 -1 -1 -1 -1 -1 -1 -1 -1 -1 -1 -1 -1 -1 -1 -1 -1 -0 -0 -1 -1 -1 -1 -1 -1 -2 -2 -3 -3 -3 -3 -2 -2 -2 -2 -2 -1 -1 -2 -2 -1 -1 -1 -2 -1 -1 -1 -1 -1 -1 -1 -1 -1 -1 -1 -1 -1 -1 -1 -1 -1 -1 -1 -1 -1
-1 -1 -1 -1 -1 -1 -1 -1 -1 -1 -1 -1 -1 -1 -1 -1 -0 -0 -0 -0 -0 -0 -1 -1 -1 -1 -1 -1 -2 -2 -2 -3 -3 -3 -3 -3 -2 -2 -2 -2 -2 -2 -2 -2 -2 -2 -2 -2 -2 -1 -1 -1 -1 -1 -1 -1 -1 -1 -1 -1 -1 -1 -1 -1 -1 -1 -1 -1 -1
-1 -1 -1 -1 -1 -1 -1 -1 -1 -1 -1 -1 -1 -1 -1 -0 -0 -0 -0 -0 -0 -0 -1 -1 -1 -1 -1 -2 -2 -2 -3 -3 -3 -3 -4 -3 -3 -2 -2 -2 -2 -2 -2 -2 -2 -2 -2 -2 -2 -1 -1 -1 -1 -1 -1 -1 -1 -1 -1 -1 -1 -1 -1 -1 -1 -1 -1 -1 -1
-1 -1 -2 -2 -2 -2 -2 -1 -1 -1 -1 -1 -1 -1 -1 -1 -0 -0 -1 -1 -1 -1 -1 -1 -1 -1 -2 -2 -2 -2 -3 -3 -3 -3 -4 -4 -3 -3 -2 -2 -2 -2 -2 -2 -2 -2 -2 -2 -2 -1 -1 -1 -1 -1 -1 -1 -1 -1 -1 -1 -1 -1 -1 -1 -1 -1 -1 -1 -1
-2 -2 -2 -2 -2 -2 -2 -2 -1 -1 -1 -1 -1 -1 -1 -1 -1 -1 -1 -1 -1 -1 -1 -1 -1 -2 -2 -2 -2 -3 -3 -3 -3 -3 -3 -3 -3 -3 -3 -2 -2 -2 -2 -2 -2 -2 -2 -2 -2 -2 -1 -1 -1 -1 -1 -1 -1 -1 -1 -1 -1 -1 -1 -1 -1 -1 -1 -1 -1
-2 -2 -2 -2 -2 -2 -2 -2 -1 -1 -1 -1 -1 -1 -1 -1 -1 -1 -1 -1 -1 -1 -1 -1 -2 -2 -2 -2 -2 -3 -3 -3 -3 -3 -3 -3 -3 -3 -3 -2 -2 -2 -2 -2 -2 -2 -2 -2 -2 -2 -1 -1 -1 -1 -1 -1 -1 -0 -0 -0 -1 -1 -1 -1 -1 -1 -1 -1 -1
Height
1490 1491 1492 1492 1492 1493 1493 1493 1493 1493 1493 1492 1492 1492 1491 1491 1491 1490 1490 1491 1491 1491 1491 1491 1491 1492 1492 1492 1493 1493 1493 1493 1494 1494 1495 1495 1496 1496 1497 1497 1498 1498 1498 1499 1499 1500 1500 1501 1501 1502 1502 1502 1503 1503 1503 1503 1504 1504 1505 1505 1505 1506 1506 1507 1507 1507 1507 1508 1508
1490 1491 1492 1492 1492 1492 1492 1492 1492 1492 1492 1492 1491 1491 1490 1490 1490 1490 1490 1490 1490 1490 1491 1491 1491 1491 1492 1492 1492 1493 1493 1493 1493 1494 1494 1495 1495 1495 1496 1496 1497 1497 1498 1498 1498 1498 1499 1499 1500 1500 1501 1501 1501 1502 1502 1502 1503 1503 1503 1504 1504 1505 1505 1505 1506 1506 1506 1506 1507
1490 1491 1491 1492 1492 1492 1492 1492 1492 1492 1491 1491 1490 1490 1490 1489 1489 1489 1489 1490 1490 1490 1490 1491 1491 1491 1491 1492 1492 1492 1493 1493 1493 1493 1494 1494 1494 1495 1495 1495 1496 1496 1497 1497 1497 1497 1498 1498 1498 1499 1499 1500 1500 1500 1501 1501 1501 1502 1502 1503 1503 1503 1504 1504 1504 1505 1505 1505 1505
1491 1491 1491 1491 1492 1492 1492 1491 1491 1491 1490 1490 1489 1489 1489 1489 1489 1489 1489 1489 1489 1490 1490 1490 1490 1491 1491 1491 1492 1492 1492 1493 1493 1493 1493 1493 1494 1494 1494 1495 1495 1495 1495 1496 1496 1496 1497 1497 1497 1498 1498 1498 1499 1499 1499 1499 1500 1500 1501 1501 1502 1502 1503 1503 1503 1503 1504 1504 1504
1490 1491 1491 1491 1491 1491 1491 1491 1490 1490 1489 1489 1489 1488 1488 1488 1488 1488 1489 1489 1489 1489 1489 1490 1490 1490 1491 1491 1491 1491 1492 1492 1492 1493 1493 1493 1493 1493 1493 1494 1494 1494 1495 1495 1495 1495 1496 1496 1496 1496 1497 1497 1498 1498 1498 1498 1499 1499 1499 1500 1500 1501 1502 1502 1502 1503 1503 1503 1503
1490 1490 1490 1490 1490 1490 1490 1489 1489 1489 1488 1488 1488 1488 1488 1488 1488 1488 1488 1489 1489 1489 1489 1489 1490 1490 1490 1490 1491 1491 1491 1492 1492 1492 1492 1493 1493 1493 1493 1493 1493 1494 1494 1494 1494 1495 1495 1495 1495 1496 1496 1496 1497 1497 1497 1498 1498 1498 1498 1499 1499 1500 1500 1501 1501 1502 1502 1503 1503
1489 1489 1489 1489 1489 1489 1489 1488 1488 1488 1488 1488 1488 1488 1488 1488 1488 1488 1488 1489 1489 1489 1489 1489 1490 1490 1490 1490 1491 1491 1491 1492 1492 1492 1492 1492 1492 1493 1493 1493 1493 1493 1493 1494 1494 1494 1494 1494 1495 1495 1495 1496 1496 1496 1497 1497 1497 1498 1498 1498 1499 1499 1500 1500 1500 1501 1501 1502 1502
1488 1488 1488 1488 1488 1488 1488 1488 1487 1487 1487 1487 1488 1488 1488 1488 1488 1488 1488 1489 1489 1489 1489 1489 1489 1490 1490 1490 1491 1491 1491 1492 1492 1492 1492 1492 1492 1492 1492 1493 1493 1493 1493 1493 1494 1494 1494 1494 1495 1495 1495 1495 1496 1496 1496 1497 1497 1498 1498 1498 1498 1499 1499 1500 1500 1501 1501 1502 1502
1488 1488 1487 1487 1487 1487 1487 1487 1487 1487 1487 1487 1488 1488 1488 1488 1488 1488 1489 1489 1489 1489 1489 1489 1489 1490 1490 1490 1491 1491 1491 1492 1492 1492 1492 1492 1492 1492 1492 1493 1493 1493 1493 1493 1494 1494 1494 1494 1494 1495 1495 1495 1496 1496 1496 1496 1497 1497 1498 1498 1498 1499 1499 1500 1500 1500 1501 1501 1502
1488 1488 1487 1487 1487 1487 1487 1487 1487 1487 1487 1487 1488 1488 1488 1488 1488 1489 1489 1489 1489 1489 1489 1489 1490 1490 1490 1491 1491 1491 1491 1492 1492 1492 1492 1492 1492 1492 1492 1493 1493 1493 1494 1494 1494 1494 1494 1494 1495 1495 1495 1495 1495 1496 1496 1496 1497 1498 1498 1498 1499 1499 1499 1500 1500 1500 1501 1501 1502
1488 1488 1488 1487 1487 1487 1487 1487 1487 1487 1487 1488 1488 1488 1488 1488 1488 1489 1489 1489 1489 1489 1489 1490 1490 1490 1490 1491 1491 1491 1491 1492 1492 1492 1492 1492 1492 1492 1493 1493 1493 1493 1494 1494 1494 1494 1494 1495 1495 1495 1495 1495 1495 1496 1496 1496 1497 1498 1498 1498 1499 1499 1499 1500 1500 1501 1501 1501 1502
1488 1488 1488 1488 1488 1488 1488 1488 1488 1488 1488 1488 1488 1488 1488 1488 1489 1489 1489 1489 1489 1489 1490 1490 1490 1490 1491 1491 1491 1491 1491 1492 1492 1492 1492 1492 1492 1493 1493 1493 1493 1493 1494 1494 1494 1494 1495 1495 1495 1495 1495 1496 1496 1496 1496 1497 1497 1498 1498 1498 1499 1499 1499 1500 1500 1501 1501 1501 1502
1488 1488 1488 1488 1488 1488 1488 1488 1488 1488 1488 1488 1488 1488 1489 1489 1489 1489 1489 1489 1489 1490 1490 1490 1490 1490 1491 1491 1491 1491 1491 1492 1492 1492 1492 1492 1492 1493 1493 1493 1493 1493 1494 1494 1494 1494 1495 1495 1495 1495 1496 1496 1496 1496 1497 1497 1497 1498 1498 1498 1498 1499 1499 1500 1500 1501 1501 1501 1502
1488 1488 1488 1488 1488 1488 1488 1488 1488 1488 1488 1488 1489 1489 1489 1489 1489 1489 1489 1489 1490 1490 1490 1490 1490 1491 1491 1491 1491 1491 1492 1492 1492 1492 1492 1492 1493 1493 1493 1493 1493 1494 1494 1494 1494 1494 1495 1495 1495 1496 1496 1496 1496 1496 1497 1497 1498 1498 1498 1499 1499 1499 1500 1500 1500 1501 1501 1502 1502
1488 1488 1488 1488 1488 1488 1488 1488 1488 1488 1488 1489 1489 1489 1489 1489 1489 1489 1490 1490 1490 1490 1490 1490 1491 1491 1491 1491 1491 1492 1492 1492 1492 1492 1492 1493 1493 1493 1493 1493 1493 1494 1494 1494 1494 1495 1495 1495 1496 1496 1496 1496 1497 1497 1497 1498 1498 1498 1499 1499 1500 1500 1500 1501 1501 1501 1502 1502 1502
1488 1488 1488 1488 1488 1488 1488 1488 1488 1488 1488 1488 1489 1489 1489 1489 1489 1490 1490 1490 1490 1490 1491 1491 1491 1491 1491 1491 1492 1492 1492 1492 1492 1493 1493 1493 1493 1493 1493 1494 1494 1494 1494 1494 1495 1495 1495 1496 1496 1496 1497 1497 1497 1497 1498 1498 1499 1499 1500 1500 1500 1501 1501 1501 1502 1502 1502 1503 1503
1488 1488 1488 1488 1488 1489 1489 1489 1489 1489 1489 1489 1489 1489 1489 1489 1490 1490 1490 1490 1490 1491 1491 1491 1491 1491 1492 1492 1492 1492 1492 1492 1493 1493 1493 1493 1493 1493 1494 1494 1494 1494 1495 1495 1495 1496 1496 1496 1497 1497 1497 1498 1498 1498 1498 1499 1499 1500 1500 1501 1501 1501 1502 1502 1502 1503 1503 1503 1503
1488 1488 1488 1488 1489 1489 1489 1489 1489 1490 1490 1490 1490 1490 1490 1490 1490 1491 1491 1491 1491 1491 1491 1491 1492 1492 1492 1492 1492 1492 1493 1493 1493 1493 1493 1493 1494 1494 1494 1494 1495 1495 1495 1496 1496 1496 1497 1497 1497 1498 1498 1498 1498 1499 1499 1499 1500 1500 1501 1501 1502 1502 1502 1502 1503 1503 1503 1503 1503
1488 1488 1489 1489 1489 1489 1489 1489 1490 1490 1490 1490 1490 1491 1491 1491 1491 1491 1491 1491 1491 1491 1492 1492 1492 1492 1492 1492 1492 1493 1493 1493 1493 1493 1494 1494 1494 1495 1495 1495 1495 1496 1496 1496 1497 1497 1497 1498 1498 1498 1498 1499 1499 1499 1500 1500 1500 1501 1501 1502 1502 1502 1502 1503 1503 1503 1503 1504 1504
1488 1489 1489 1489 1489 1489 1490 1490 1490 1490 1490 1491 1491 1491 1491 1491 1491 1492 1492 1492 1492 1492 1492 1492 1492 1492 1492 1493 1493 1493 1493 1493 1493 1494 1494 1494 1495 1495 1495 1496 1496 1496 1496 1497 1497 1498 1498 1498 1498 1498 1499 1499 1500 1500 1500 1501 1501 1501 1502 1502 1502 1502 1503 1503 1503 1503 1503 1504 1504
1488 1489 1489 1489 1489 1490 1490 1490 1490 1490 1491 1491 1491 1491 1491 1491 1492 1492 1492 1492 1492 1492 1492 1492 1492 1492 1493 1493 1493 1493 1493 1494 1494 1494 1494 1495 1495 1495 1496 1496 1496 1497 1497 1497 1498 1498 1498 1498 1499 1499 1499 1500 1500 1500 1501 1501 1501 1502 1502 1502 1502 1503 1503 1503 1503 1503 1504 1504 1504
1489 1489 1489 1489 1489 1490 1490 1490 1490 1491 1491 1491 1491 1491 1491 1491 1492 1492 1492 1492 1492 1492 1492 1492 1492 1493 1493 1493 1493 1493 1494 1494 1494 1494 1495 1495 1495 1496 1496 1496 1497 1497 1497 1498 1498 1498 1499 1499 1499 1500 1500 1500 1501 1501 1501 1501 1502 1502 1502 1502 1503 1503 1503 1503 1503 1504 1504 1504 1505
1489 1489 1489 1489 1490 1490 1490 1490 1490 1491 1491 1491 1491 1491 1491 1491 1492 1492 1492 1492 1492 1492 1492 1492 1492 1493 1493 1493 1493 1493 1494 1494 1494 1494 1495 1495 1496 1496 1496 1497 1497 1498 1498 1498 1499 1499 1499 1500 1500 1500 1500 1501 1501 1501 1501 1502 1502 1502 1502 1503 1503 1503 1504 1504 1504 1504 1504 1504 1505
1489 1489 1489 1489 1489 1490 1490 1490 1490 1491 1491 1491 1491 1491 1491 1491 1492 1492 1492 1492 1492 1492 1492 1492 1492 1493 1493 1493 1493 1493 1493 1494 1494 1494 1495 1495 1496 1496 1497 1497 1498 1498 1498 1499 1499 1499 1500 1500 1500 1501 1501 1501 1501 1502 1502 1502 1502 1502 1503 1503 1503 1503 1504 1504 1504 1504 1504 1504 1505
1488 1488 1489 1489 1489 1489 1490 1490 1490 1490 1490 1491 1491 1491 1491 1491 1491 1492 1492 1492 1492 1492 1492 1492 1492 1492 1493 1493 1493 1493 1493 1494 1494 1494 1495 1495 1496 1497 1497 1497 1498 1498 1498 1499 1499 1500 1500 1501 1501 1501 1501 1502 1502 1502 1502 1502 1503 1503 1503 1503 1503 1503 1504 1504 1504 1504 1504 1504 1505
1488 1488 1488 1489 1489 1489 1489 1490 1490 1490 1490 1490 1491 1491 1491 1491 1491 1491 1491 1492 1492 1492 1492 1492 1492 1492 1493 1493 1493 1493 1493 1493 1494 1494 1495 1495 1496 1497 1497 1498 1498 1498 1499 1499 1500 1500 1501 1501 1501 1502 1502 1502 1502 1502 1502 1503 1503 1503 1503 1503 1503 1503 1503 1504 1504 1504 1504 1505 1505
1488 1488 1488 1488 1488 1489 1489 1489 1489 1490 1490 1490 1490 1490 1491 1491 1491 1491 1491 1491 1492 1492 1492 1492 1492 1492 1493 1493 1493 1493 1493 1494 1494 1494 1495 1496 1496 1497 1497 1498 1498 1499 1499 1499 1500 1500 1501 1501 1502 1502 1502 1502 1502 1503 1503 1503 1503 1503 1503 1503 1503 1503 1503 1503 1504 1504 1504 1505 1505
1487 1487 1488 1488 1488 1488 1488 1489 1489 1489 1489 1490 1490 1490 1490 1491 1491 1491 1491 1491 1492 1492 1492 1492 1492 1493 1493 1493 1493 1493 1494 1494 1494 1495 1495 1496 1496 1497 1497 1498 1498 1499 1499 1500 1500 1501 1501 1502 1502 1502 1502 1502 1503 1503 1503 1503 1503 1503 1503 1503 1503 1503 1503 1503 1504 1504 1504 1505 1505
1486 1486 1487 1487 1488 1488 1488 1488 1489 1489 1489 1489 1490 1490 1490 1490 1491 1491 1491 1491 1492 1492 1492 1492 1493 1493 1493 1493 1493 1494 1494 1494 1494 1495 1495 1496 1497 1497 1498 1498 1498 1499 1499 1500 1500 1501 1501 1502 1502 1502 1502 1502 1503 1503 1503 1503 1503 1503 1503 1503 1503 1503 1503 1503 1504 1504 1504 1505 1505
1485 1486 1486 1486 1487 1487 1488 1488 1488 1488 1489 1489 1489 1490 1490 1490 1490 1491 1491 1491 1491 1492 1492 1492 1493 1493 1493 1493 1493 1494 1494 1494 1495 1495 1496 1496 1497 1497 1498 1498 1498 1499 1499 1500 1501 1501 1501 1502 1502 1502 1502 1502 1503 1503 1503 1503 1503 1503 1503 1503 1503 1503 1503 1504 1504 1504 1504 1505 1505
1485 1485 1485 1486 1486 1487 1487 1487 1488 1488 1488 1489 1489 1489 1490 1490 1490 1490 1491 1491 1491 1491 1492 1492 1492 1492 1493 1493 1493 1493 1494 1494 1495 1495 1496 1496 1497 1497 1498 1498 1498 1499 1499 1500 1501 1501 1501 1502 1502 1502 1502 1502 1502 1502 1503 1503 1503 1503 1503 1503 1503 1503 1503 1504 1504 1504 1504 1505 1505
1484 1484 1484 1485 1485 1486 1486 1487 1487 1488 1488 1488 1489 1489 1489 1490 1490 1490 1490 1491 1491 1491 1491 1492 1492 1492 1493 1493 1493 1493 1494 1494 1495 1496 1496 1496 1497 1498 1498 1498 1498 1499 1499 1500 1500 1501 1501 1501 1501 1502 1502 1502 1502 1502 1502 1502 1503 1503 1503 1503 1503 1503 1503 1503 1504 1504 1504 1505 1505
1483 1483 1483 1484 1484 1485 1485 1486 1486 1487 1487 1488 1488 1488 1489 1489 1489 1490 1490 1490 1490 1491 1491 1491 1492 1492 1492 1493 1493 1494 1494 1495 1495 1496 1497 1497 1497 1498 1498 1498 1499 1499 1499 1500 1500 1501 1501 1501 1501 1501 1501 1502 1502 1502 1502 1502 1502 1502 1503 1503 1503 1503 1503 1503 1504 1504 1504 1505 1505
1482 1482 1483 1483 1483 1484 1485 1485 1486 1486 1487 1487 1487 1488 1488 1488 1489 1489 1489 1490 1490 1490 1491 1491 1491 1492 1492 1493 1493 1494 1494 1495 1496 1496 1497 1497 1497 1498 1498 1498 1499 1499 1499 1499 1500 1500 1500 1500 1501 1501 1501 1501 1501 1502 1502 1502 1502 1502 1502 1502 1503 1503 1503 1503 1504 1504 1504 1504 1505
1481 1481 1482 1482 1483 1483 1484 1484 1485 1485 1486 1486 1487 1487 1488 1488 1488 1488 1489 1489 1489 1490 1490 1491 1491 1492 1493 1493 1494 1494 1495 1495 1496 1496 1497 1497 1498 1498 1498 1498 1498 1499 1499 1499 1499 1500 1500 1500 1500 1500 1501 1501 1501 1501 1501 1501 1502 1502 1502 1502 1502 1503 1503 1503 1503 1504 1504 1504 1504
1480 1480 1481 1482 1482 1483 1483 1483 1484 1484 1485 1485 1486 1486 1487 1487 1488 1488 1488 1489 1489 1490 1490 1491 1491 1492 1493 1493 1494 1494 1495 1495 1496 1496 1497 1497 1497 1497 1498 1498 1498 1498 1498 1499 1499 1499 1499 1500 1500 1500 1500 1500 1501 1501 1501 1501 1501 1501 1502 1502 1502 1503 1503 1503 1503 1503 1504 1504 1504
1479 1480 1480 1481 1481 1482 1482 1483 1483 1483 1484 1484 1485 1485 1486 1487 1487 1488 1488 1488 1489 1490 1490 1491 1491 1492 1493 1493 1494 1494 1495 1495 1496 1496 1496 1496 1497 1497 1497 1497 1498 1498 1498 1498 1498 1499 1499 1499 1499 1499 1500 1500 1500 1500 1501 1501 1501 1501 1501 1502 1502 1502 1503 1503 1503 1503 1503 1503 1504
1478 1479 1479 1480 1480 1481 1481 1482 1482 1483 1483 1483 1484 1485 1485 1486 1487 1487 1488 1488 1489 1489 1490 1491 1491 1492 1492 1493 1493 1494 1494 1495 1495 1496 1496 1496 1496 1496 1497 1497 1497 1498 1498 1498 1498 1498 1498 1499 1499 1499 1499 1499 1500 1500 1500 1500 1501 1501 1501 1501 1502 1502 1502 1503 1503 1503 1503 1503 1503
1477 1478 1478 1479 1479 1480 1480 1481 1481 1482 1482 1483 1483 1484 1485 1485 1486 1487 1487 1488 1488 1489 1490 1490 1491 1491 1492 1493 1493 1493 1494 1494 1495 1495 1495 1496 1496 1496 1496 1496 1497 1497 1497 1498 1498 1498 1498 1498 1498 1498 1499 1499 1499 1500 1500 1500 1500 1500 1501 1501 1501 1501 1502 1502 1502 1503 1503 1503 1503
1476 1477 1477 1478 1478 1478 1479 1480 1480 1481 1481 1482 1483 1483 1484 1485 1486 1486 1487 1488 1488 1489 1489 1490 1490 1491 1492 1492 1493 1493 1493 1494 1494 1494 1495 1495 1495 1496 1496 1496 1496 1496 1497 1497 1497 1497 1498 1498 1498 1498 1498 1499 1499 1499 1499 1500 1500 1500 1500 1500 1501 1501 1501 1502 1502 1502 1502 1503 1503
1475 1476 1476 1477 1477 1478 1478 1479 1479 1480 1481 1481 1482 1483 1483 1484 1485 1486 1486 1487 1488 1488 1488 1489 1490 1490 1491 1491 1492 1492 1493 1493 1493 1494 1494 1494 1495 1495 1495 1495 1496 1496 1496 1496 1497 1497 1497 1497 1497 1498 1498 1498 1498 1499 1499 1499 1499 1500 1500 1500 1500 1501 1501 1501 1501 1502 1502 1502 1502
Wind_Speed
6 7 9 10 11 11 11 10 9 9 8 7 7 6 5 4 3 2 2 2 1 0 1 2 3 4 4 5 5 6 7 8 8 9 10 11 12 13 13 14 13 13 13 13 13 13 13 13 14 14 14 14 14 14 15 15 15 15 15 15 15 16 16 16 16 16 17 17 17
5 6 7 8 8 8 8 9 8 8 8 7 7 6 6 5 4 3 3 2 1 1 1 2 2 2 3 3 4 4 5 6 7 7 8 9 10 11 12 13 13 13 13 13 13 14 14 14 14 15 15 15 15 15 15 15 15 15 16 16 16 16 16 16 17 17 17 17 17
5 5 5 6 6 6 7 7 8 8 7 7 6 6 6 5 4 4 3 2 2 2 2 2 2 3 3 3 3 4 4 5 6 6 7 8 9 10 11 11 12 12 13 13 13 14 14 14 15 15 15 15 15 16 16 15 15 16 16 16 16 16 16 16 17 17 17 17 18
6 6 5 5 6 6 7 7 7 7 7 6 6 6 6 6 5 4 4 3 3 4 4 4 4 4 4 4 4 4 5 5 5 6 7 7 8 9 10 10 11 11 12 12 12 13 13 14 14 14 14 14 14 15 15 15 15 15 15 15 16 16 16 16 16 16 16 17 17
8 7 7 7 6 7 7 6 6 6 6 6 6 6 6 6 6 5 5 5 5 5 5 5 5 5 5 5 5 5 5 6 6 6 6 7 8 8 9 9 10 10 10 11 11 11 11 11 11 11 11 11 11 12 13 13 13 13 13 14 13 13 13 13 14 13 14 14 14
10 9 9 8 8 8 7 7 6 6 6 6 6 6 6 6 6 6 6 6 6 6 6 5 5 5 5 5 5 5 6 6 6 6 6 7 7 8 8 8 8 9 9 9 8 8 8 8 7 7 7 8 8 9 10 10 10 10 10 11 11 11 10 10 10 10 10 10 10
11 11 11 10 9 9 8 7 7 6 6 6 6 6 5 5 5 6 6 7 7 7 6 6 5 5 5 5 5 5 5 5 5 5 6 6 6 6 6 6 7 7 7 7 6 6 6 6 5 4 5 6 6 7 9 9 8 8 8 8 8 8 8 8 8 8 8 8 7
10 11 11 11 10 10 9 8 7 7 7 6 6 6 5 5 5 5 6 6 6 6 6 6 5 5 5 5 4 4 4 4 4 4 4 4 4 4 4 5 5 5 5 5 5 5 5 6 5 4 5 6 6 7 8 8 7 7 6 6 6 6 6 6 7 7 7 7 7
8 9 10 10 10 10 9 9 8 8 8 7 7 6 6 6 6 6 6 6 6 6 5 5 5 5 5 5 5 4 4 4 4 4 4 4 3 3 3 4 4 4 4 4 4 4 4 4 5 5 5 5 5 5 5 5 5 4 4 3 4 4 5 6 6 7 7 7 7
6 7 7 8 8 8 8 8 8 8 8 7 7 7 6 6 6 6 6 6 5 5 5 4 4 5 5 5 5 5 5 5 5 4 4 4 4 3 3 3 3 3 3 3 3 3 2 2 3 3 3 3 3 3 3 4 3 3 2 2 3 3 4 5 5 6 6 6 7
6 6 6 6 7 7 7 7 7 7 7 7 7 7 6 6 6 6 5 5 5 5 5 5 5 5 5 5 5 5 5 5 5 5 5 5 4 4 4 4 4 4 4 4 4 3 3 3 3 3 3 4 4 5 5 5 5 4 4 4 4 4 4 4 5 5 5 6 6
5 5 6 6 6 6 6 6 6 6 6 6 6 6 6 6 6 6 5 5 5 5 5 6 6 6 6 6 6 6 6 6 6 6 5 5 5 5 5 5 5 4 4 4 4 4 4 4 4 4 5 5 6 6 6 6 6 6 6 6 6 6 6 6 6 6 6 6 6
5 5 5 6 6 6 6 6 6 6 6 6 6 6 6 6 6 6 6 6 6 6 6 6 6 6 6 6 6 6 6 6 6 6 6 6 6 5 5 5 5 5 5 5 5 5 5 5 5 5 6 6 7 7 7 6 6 6 6 7 7 7 7 7 7 7 6 6 6
5 6 6 6 6 6 7 8 8 8 7 7 6 6 6 6 6 6 6 7 7 7 7 7 7 7 7 7 6 6 6 6 6 6 6 6 6 6 6 6 6 6 6 6 6 6 6 6 7 7 7 8 8 8 8 8 7 7 7 7 7 8 8 8 8 8 8 7 7
6 6 6 6 6 6 7 8 9 9 9 8 8 7 7 7 7 7 7 7 8 8 8 8 8 8 8 8 8 7 7 7 7 7 7 7 7 7 7 7 7 7 7 8 8 8 8 8 8 9 9 9 10 10 10 9 9 8 8 8 8 8 8 9 9 8 8 8 7
6 6 6 6 5 5 6 6 7 8 9 9 8 8 8 7 7 7 7 7 8 8 8 9 8 8 8 9 9 8 8 8 8 8 8 8 8 8 8 8 9 9 9 10 10 10 10 10 10 10 10 11 11 11 11 11 10 10 9 9 9 8 9 9 9 8 8 8 8
5 6 6 6 6 6 5 5 6 6 7 7 8 8 8 8 8 7 7 7 7 8 9 9 9 9 9 9 9 9 9 9 9 9 9 9 9 9 9 10 10 10 11 11 11 11 11 11 11 11 11 11 11 11 11 11 11 10 10 10 9 9 9 9 8 8 8 8 8
5 5 5 5 6 6 6 6 6 6 6 6 7 7 8 8 8 8 8 7 8 8 9 9 9 9 9 9 9 9 9 9 9 9 9 10 10 10 10 10 11 11 11 11 11 12 12 12 12 12 12 12 12 12 11 11 11 11 10 10 10 9 9 9 8 8 8 8 8
5 5 5 5 5 6 6 7 7 7 7 7 7 7 7 7 7 7 7 7 8 8 9 9 9 9 9 9 9 9 9 9 9 10 10 10 10 10 10 11 11 11 11 11 11 11 11 12 12 12 11 11 11 11 11 11 10 10 10 10 10 9 9 9 8 8 8 8 9
5 5 5 5 5 5 6 6 7 7 7 7 7 7 7 7 7 7 7 7 7 8 8 9 9 9 9 9 9 9 9 9 9 10 10 10 10 10 10 10 11 11 10 10 10 10 11 11 11 11 11 10 10 10 10 10 10 9 9 9 9 9 9 8 8 8 8 9 9
5 5 5 5 5 5 6 6 6 7 7 7 8 8 8 7 7 7 7 7 7 7 7 8 8 9 9 9 9 9 9 9 9 10 10 10 10 10 10 10 10 10 10 10 10 10 10 10 10 10 10 10 10 9 9 9 9 9 9 9 9 9 8 8 8 8 8 9 10
6 6 6 6 6 6 6 6 6 7 7 7 8 8 7 7 7 7 6 6 6 6 6 7 7 8 8 9 9 9 9 9 9 9 9 9 9 9 10 10 10 10 10 9 9 9 9 9 9 9 9 9 9 9 9 9 8 8 8 8 8 8 8 8 8 8 9 9 10
6 6 6 6 6 6 6 6 7 7 7 7 7 7 7 7 7 7 6 6 6 6 6 6 6 7 7 8 8 8 8 9 9 9 9 9 9 9 9 9 10 10 9 9 9 9 8 8 8 8 8 8 8 8 8 8 8 8 8 8 8 8 8 8 9 9 9 9 10
6 6 6 6 6 6 7 7 7 7 7 7 7 7 7 7 7 7 7 6 6 6 6 6 6 6 6 7 7 7 8 8 8 9 9 9 9 9 9 9 9 9 9 9 8 8 8 8 8 8 8 8 8 8 8 7 7 7 7 8 8 8 9 9 9 9 9 9 10
6 6 6 6 6 6 6 6 6 7 7 7 7 7 7 7 7 7 7 7 6 6 6 6 6 6 6 6 6 6 7 7 7 8 8 8 8 8 8 8 9 9 9 8 8 8 7 7 7 7 7 7 7 7 7 7 7 7 8 8 8 8 9 9 9 9 9 9 9
6 6 6 6 6 6 6 6 6 6 6 6 6 6 6 6 7 7 7 7 7 6 6 6 7 7 6 6 6 6 6 6 6 6 7 7 7 7 7 7 7 8 8 8 8 7 7 7 6 6 6 6 7 7 7 7 7 8 8 8 8 8 9 9 9 9 9 9 9
7 7 6 6 6 6 6 6 6 6 6 5 5 5 5 6 6 6 7 7 7 7 7 7 7 7 7 7 6 6 5 5 5 5 6 6 6 6 6 6 7 7 7 7 7 7 7 7 6 6 6 6 6 7 7 7 7 8 8 8 8 8 8 8 9 9 9 9 9
8 7 7 7 7 6 6 6 6 6 6 6 5 5 5 5 5 6 6 7 7 7 7 8 8 8 7 7 7 6 6 5 5 5 5 6 6 6 6 6 7 7 7 7 7 7 7 7 6 6 6 6 6 7 7 7 7 8 8 8 8 8 8 8 8 8 8 8 8
9 8 8 8 7 7 7 7 6 6 6 6 6 6 5 5 5 6 6 7 7 7 8 8 8 8 7 7 7 7 6 5 4 4 5 5 6 6 6 7 7 8 8 7 7 7 7 7 7 7 7 6 7 7 7 7 7 7 8 8 8 8 8 8 7 7 7 7 7
9 9 9 8 8 8 8 7 7 7 7 7 6 6 6 6 6 6 6 7 7 7 8 8 8 7 7 6 7 7 6 5 4 4 4 4 4 5 6 7 8 9 8 8 8 8 8 7 7 7 7 7 7 7 7 7 7 7 7 8 7 7 7 7 7 7 6 6 6
10 10 10 9 9 9 8 8 8 8 8 7 7 7 7 7 7 6 7 7 7 7 7 7 7 7 6 6 5 6 6 5 4 3 3 2 3 4 5 7 9 10 10 9 9 9 8 8 8 8 7 7 7 7 7 8 8 7 7 7 7 7 7 6 6 6 6 5 5
11 11 11 10 10 10 9 9 9 9 8 8 8 8 7 7 7 7 7 7 7 7 7 6 6 6 5 5 4 4 4 4 3 2 2 1 2 3 5 7 9 10 10 10 10 9 9 9 8 8 8 8 8 8 8 8 8 8 8 7 7 7 6 6 6 5 5 5 4
11 11 11 11 11 10 10 10 10 9 9 8 8 8 8 8 8 7 7 7 7 7 6 6 6 5 5 5 4 3 3 3 2 2 2 1 1 2 4 6 8 10 10 10 10 10 10 9 9 8 8 8 8 8 8 8 8 8 7 7 7 7 6 6 5 5 4 4 3
11 12 11 11 11 11 11 11 10 10 9 9 9 9 8 8 8 8 8 7 7 7 6 6 6 5 5 5 4 4 3 3 3 3 3 2 2 1 3 5 6 8 9 10 10 10 10 9 9 8 8 8 8 8 8 8 8 7 7 7 7 7 6 6 5 4 4 3 2
12 12 12 12 12 12 12 11 11 11 10 10 10 9 9 9 9 8 8 8 8 7 7 7 6 6 5 5 5 5 5 5 5 5 4 4 3 2 1 3 4 6 7 8 10 10 10 9 9 9 8 8 8 8 8 8 7 7 7 7 7 6 6 6 5 4 3 3 2
12 12 12 12 12 13 13 12 12 12 11 11 10 10 10 9 9 9 9 9 9 8 8 8 7 7 6 6 6 6 6 7 7 6 6 5 4 3 2 2 3 4 6 7 9 9 10 9 9 9 8 8 8 8 8 8 7 7 7 7 7 6 6 5 5 4 3 2 2
12 13 13 13 13 13 13 13 13 12 12 12 11 11 11 10 10 10 10 10 10 10 9 9 8 8 7 7 7 7 8 8 8 8 7 6 5 4 3 2 2 3 5 6 8 9 9 9 9 9 8 8 8 8 8 8 8 7 7 7 7 6 6 5 5 4 3 2 2
12 13 13 13 13 13 13 13 13 13 12 12 12 12 12 12 11 11 11 11 11 11 11 10 10 9 9 8 8 8 9 9 9 9 8 7 6 5 4 3 2 3 4 5 7 8 9 9 9 9 9 8 8 8 8 8 8 8 7 7 7 6 6 5 4 4 3 3 3
12 13 13 13 13 13 13 13 13 13 13 13 13 13 13 12 12 12 12 12 12 12 11 11 10 10 10 10 10 10 10 10 10 10 10 9 7 5 5 4 4 3 3 5 6 7 8 9 9 9 9 8 8 8 8 8 8 8 7 7 6 6 5 5 4 4 4 3 3
12 12 13 13 13 13 13 13 13 13 14 14 14 14 13 13 13 13 13 12 12 12 11 11 11 11 11 11 11 11 11 11 11 11 11 10 8 6 5 5 5 4 3 4 5 6 7 8 8 8 8 8 8 8 8 8 8 8 7 7 6 6 5 5 4 4 4 4 4
12 12 12 13 13 13 13 13 14 14 14 14 14 14 14 14 14 14 13 13 12 12 11 11 11 11 11 11 11 11 11 12 12 12 11 10 9 8 7 7 6 5 4 3 4 5 6 7 7 8 8 8 8 8 8 8 8 8 8 7 6 6 5 5 5 5 5 5 5
Wind_Direction
187 195 203 212 219 221 222 224 226 227 227 231 237 242 242 236 235 246 263 275 305 5 168 199 214 223 228 230 231 234 234 233 233 232 231 231 231 231 231 231 231 233 234 235 236 237 238 239 240 240 241 240 241 242 242 243 244 245 245 246 246 247 248 249 251 252 252 253 253
171 184 195 205 214 220 223 224 224 224 226 229 232 233 231 224 219 228 242 246 238 209 193 204 218 229 233 236 241 243 242 241 240 238 236 234 233 233 233 234 236 237 238 239 240 241 241 242 243 244 244 245 245 246 247 247 247 247 248 249 249 250 250 251 252 253 253 254 254
158 170 183 193 202 210 216 218 219 218 220 223 227 228 224 218 213 214 218 224 222 211 203 205 220 230 231 231 236 243 245 245 243 240 238 236 236 235 236 236 238 240 241 242 242 243 244 244 245 245 246 247 248 249 249 249 249 248 248 248 249 249 249 249 250 251 251 252 252
153 159 169 179 189 196 200 203 205 206 209 215 219 218 214 209 206 204 206 214 215 210 204 202 213 223 226 221 223 228 234 236 236 236 235 236 236 237 238 239 239 240 242 243 245 246 247 247 247 247 246 246 246 247 248 249 250 249 248 247 248 248 248 248 248 249 249 249 250
153 156 160 166 172 175 177 179 183 188 197 205 208 206 203 201 197 197 200 206 206 205 203 202 206 213 217 215 213 214 218 222 225 227 229 233 236 238 240 240 240 241 242 243 244 244 245 246 246 245 244 244 243 244 246 248 250 249 247 247 247 247 246 245 245 245 244 244 245
154 154 153 155 156 157 158 160 166 175 185 193 193 193 194 194 192 193 196 200 205 208 207 203 201 204 205 203 203 202 205 208 213 218 223 227 232 236 237 237 237 237 236 236 235 235 237 238 238 239 240 241 242 243 245 247 247 245 242 240 241 241 239 234 232 230 228 226 225
153 149 146 146 148 148 150 154 163 172 177 180 179 179 181 184 187 190 195 202 205 205 201 196 192 191 189 186 183 183 186 191 200 210 218 222 224 225 226 227 228 226 222 220 219 223 229 234 234 239 245 248 251 251 250 248 245 239 232 225 227 227 222 214 212 208 203 198 194
150 147 144 144 146 148 150 154 161 167 169 169 167 165 166 172 180 189 195 197 194 192 191 191 190 190 188 181 174 168 165 165 174 189 198 203 206 210 214 217 216 210 205 203 202 208 223 235 239 243 250 255 256 255 252 247 242 235 226 213 210 209 206 199 197 193 187 183 181
148 147 146 147 149 151 153 155 158 160 161 160 158 157 159 165 175 183 186 183 182 184 186 187 194 199 198 191 183 172 162 154 152 159 168 174 177 187 199 205 202 193 186 185 186 195 213 231 238 242 246 250 248 244 237 229 223 222 219 205 192 192 194 193 189 186 184 181 178
146 148 149 150 151 154 156 157 157 158 157 155 154 153 155 160 167 171 172 172 173 172 170 173 183 188 189 185 177 167 157 149 145 146 150 157 162 167 173 176 172 163 152 152 159 169 181 197 210 216 217 214 201 188 180 177 176 176 176 176 172 175 180 180 180 179 177 173 167
146 150 151 151 151 153 154 154 154 155 155 153 151 149 150 151 155 158 160 160 156 151 149 154 155 156 158 160 157 151 144 137 133 131 130 132 134 136 138 140 142 137 129 123 123 126 133 143 154 157 155 152 152 151 149 150 151 150 150 152 155 157 159 159 161 161 160 157 154
145 148 150 150 148 146 145 145 146 148 150 149 149 147 145 144 143 143 143 142 140 139 141 141 138 136 136 138 138 136 131 125 122 120 119 119 120 121 122 125 127 125 122 120 120 122 128 137 145 150 151 149 147 146 145 144 144 147 148 150 151 151 151 148 146 146 147 148 148
139 140 141 142 142 141 140 138 138 138 139 140 142 142 140 137 134 132 131 131 133 133 133 132 130 126 124 124 124 122 119 115 112 111 110 112 114 118 120 122 122 121 120 122 123 126 129 134 137 140 142 142 139 137 135 135 136 140 143 145 146 146 146 143 140 139 140 143 146
132 131 132 135 138 141 142 140 138 135 133 131 132 132 132 130 128 129 130 131 131 129 127 125 124 120 119 116 114 112 109 107 104 104 106 108 111 114 116 116 116 116 117 118 120 122 126 128 129 129 130 129 126 124 122 123 124 126 130 133 136 138 137 135 133 133 136 139 143
130 130 131 134 140 146 150 149 146 143 138 134 130 128 126 123 123 125 126 127 127 126 124 121 119 118 115 113 109 105 103 102 101 102 103 106 108 110 110 111 112 113 114 115 116 119 120 121 121 121 121 119 117 116 115 116 116 118 119 122 126 128 128 127 128 130 132 135 138
135 136 136 138 143 149 156 158 156 153 148 143 138 134 130 124 122 119 117 116 118 119 118 116 115 114 112 109 107 105 103 103 103 103 103 104 105 106 107 108 110 111 112 113 114 115 116 116 116 116 115 114 113 113 113 113 114 115 117 119 121 122 122 122 124 127 129 131 132
140 142 143 144 147 150 155 160 160 158 153 148 144 139 135 131 128 124 119 115 112 110 110 111 110 109 109 108 107 105 106 106 106 104 104 104 104 105 106 107 108 109 109 110 111 112 113 113 113 113 113 113 112 112 113 114 115 117 118 119 120 120 120 120 122 123 124 124 124
140 143 145 148 150 152 154 155 155 153 148 142 138 136 134 132 131 128 125 120 114 110 107 108 107 107 106 106 106 106 107 108 108 108 107 107 107 107 108 108 108 108 108 109 110 111 112 112 112 112 112 113 113 114 115 116 118 118 119 119 119 119 119 119 120 120 120 119 117
139 140 143 147 151 154 155 156 155 151 146 140 137 134 132 131 129 127 124 121 117 112 109 108 108 107 106 106 107 108 109 111 112 112 113 112 113 112 112 111 110 110 110 111 112 112 112 112 113 113 114 114 115 115 116 117 118 118 118 118 117 116 117 118 119 120 120 118 115
140 139 141 145 150 155 158 159 158 156 151 147 144 140 138 135 133 130 126 123 120 117 113 111 111 111 110 109 110 112 114 116 118 120 121 121 121 119 118 116 114 113 113 113 114 114 114 115 115 115 116 116 117 117 118 118 118 118 118 117 117 116 117 119 121 122 121 119 117
145 142 143 145 149 155 159 160 160 159 157 154 152 149 146 143 141 137 133 129 125 121 118 116 115 115 115 115 116 117 119 122 125 127 127 127 126 125 123 121 119 118 117 117 117 118 118 119 119 119 119 120 120 120 121 121 121 121 121 120 119 119 120 121 121 122 122 121 119
151 149 148 149 153 157 160 161 162 161 159 158 157 155 154 151 149 146 141 136 131 125 122 119 118 118 119 120 122 124 125 127 129 130 130 131 130 130 128 127 125 124 124 124 124 124 124 124 124 124 125 125 125 125 125 126 126 126 125 124 124 123 122 121 121 122 122 123 122
159 157 157 158 159 162 163 164 164 162 160 159 159 158 158 156 154 151 146 141 135 129 125 123 122 122 122 124 125 127 128 130 131 132 134 135 136 136 135 133 132 131 130 129 129 129 129 130 130 130 130 130 130 130 131 131 131 131 130 130 129 128 125 123 123 123 124 126 126
170 168 168 168 167 167 167 167 166 165 162 160 159 159 158 157 155 152 147 142 136 132 129 127 125 125 124 124 125 125 126 127 130 134 138 140 142 142 140 138 136 135 133 132 131 131 132 133 134 135 136 136 136 136 136 136 136 136 136 135 134 132 129 127 125 125 126 126 127
184 180 179 178 176 174 172 172 170 168 164 161 158 157 156 154 152 149 145 140 136 133 131 129 128 126 124 123 123 122 122 122 125 131 136 140 141 142 143 141 141 138 136 134 133 134 135 137 139 141 142 143 143 143 143 142 142 141 140 138 137 135 133 131 129 128 127 127 127
197 193 189 188 185 184 182 179 176 172 168 164 161 158 155 153 150 147 143 140 137 136 134 131 129 126 125 124 123 122 121 121 124 128 132 133 135 140 144 147 148 146 142 139 138 138 140 142 144 146 148 149 150 149 149 148 147 144 142 140 139 138 136 134 132 131 129 127 126
207 202 199 198 196 193 191 188 184 180 175 170 165 161 158 156 152 148 145 142 142 141 138 134 130 127 126 126 124 122 122 124 129 134 134 134 135 141 151 158 160 156 151 147 145 146 148 149 150 152 153 154 155 155 154 151 149 145 143 141 139 138 137 135 134 132 130 127 125
213 210 208 206 204 202 201 198 193 187 182 177 173 170 168 164 159 155 151 148 147 146 143 138 133 130 129 128 126 124 124 128 136 144 148 147 148 153 162 168 168 165 159 154 153 153 155 156 156 157 158 159 159 158 155 152 148 145 142 140 139 138 137 137 134 131 128 125 122
219 217 214 212 210 209 207 204 199 195 191 187 184 181 178 175 170 164 158 154 152 150 147 141 138 136 135 134 133 131 131 134 142 153 160 160 161 165 170 173 172 168 164 162 161 161 162 161 161 161 162 161 160 158 155 150 146 144 142 140 139 139 139 137 135 131 127 123 120
222 220 218 216 215 214 211 208 205 201 199 195 192 188 185 182 178 173 167 160 156 152 148 145 142 142 143 144 144 142 139 140 147 157 165 166 164 167 171 175 173 171 169 168 167 167 166 166 165 165 163 163 161 158 154 150 146 144 143 142 141 141 140 139 138 135 130 126 121
224 223 221 220 218 216 215 212 210 208 204 201 197 193 189 186 182 178 172 165 159 154 151 148 147 147 149 152 153 150 146 147 151 157 164 161 146 150 163 173 174 173 172 171 171 170 169 169 168 166 165 164 161 159 155 152 149 147 145 144 144 143 142 142 140 139 135 130 122
225 224 223 222 221 219 217 215 214 212 209 205 200 196 192 189 186 182 176 170 164 159 156 154 154 154 154 157 158 157 155 154 156 163 168 159 123 129 148 165 172 174 173 173 172 172 172 171 169 168 167 165 163 160 158 155 153 152 150 149 147 146 145 144 142 141 138 133 124
226 225 225 224 222 221 219 219 217 216 213 209 204 200 196 192 190 186 182 177 172 167 164 163 163 162 162 163 164 167 170 176 184 190 197 201 168 131 134 149 164 172 174 174 174 174 173 172 171 169 168 167 165 164 162 160 158 157 156 154 153 150 149 147 145 143 140 136 130
228 227 227 226 224 223 222 221 220 219 216 212 209 204 200 196 193 190 187 185 181 178 175 174 174 174 174 175 176 180 191 205 212 216 218 221 222 177 129 131 151 165 174 176 176 176 175 173 171 171 170 170 169 167 166 164 163 162 161 159 158 156 154 152 150 148 147 144 139
229 229 228 227 226 225 224 222 221 220 218 215 212 209 205 202 198 195 193 191 189 187 186 185 184 185 185 185 186 191 200 212 222 227 226 223 224 216 150 121 137 157 172 178 180 179 177 175 173 172 173 173 173 172 170 169 168 167 167 165 164 162 160 158 157 157 157 158 157
229 228 227 226 225 224 223 222 221 219 218 216 215 213 210 207 203 200 197 195 194 193 193 193 192 193 194 194 194 195 201 210 221 230 233 229 224 220 205 145 134 150 168 179 183 182 180 177 175 175 176 177 177 177 176 175 174 173 173 172 170 168 167 165 165 167 171 178 188
228 228 227 226 224 223 222 221 220 219 218 218 217 216 214 211 208 205 201 199 197 196 197 197 196 196 197 197 197 198 201 206 215 225 234 237 230 224 219 207 161 152 164 177 183 185 184 181 180 179 180 181 182 182 182 181 180 179 178 178 177 176 175 174 175 180 188 201 217
227 227 226 225 224 223 222 221 220 220 219 219 219 218 216 214 211 208 205 202 200 198 198 198 198 197 197 197 197 199 201 203 209 217 227 235 237 233 229 229 208 170 160 168 179 186 188 187 185 184 184 185 186 187 187 186 185 184 184 184 184 184 185 185 187 194 205 220 237
226 226 225 224 223 223 222 221 221 220 220 219 219 219 218 216 214 212 209 206 203 201 200 199 198 197 196 197 198 199 201 203 206 210 216 224 232 232 229 228 225 199 165 160 173 184 190 192 192 190 189 190 191 192 193 192 191 190 190 191 191 193 195 199 203 210 219 233 246
225 225 225 224 223 222 222 222 221 220 220 219 219 219 219 218 217 215 212 209 206 205 202 200 198 197 196 197 197 198 200 203 206 209 212 216 221 219 214 216 222 218 192 170 172 182 191 195 196 196 196 196 197 199 200 201 200 199 199 199 200 202 205 211 218 225 232 240 250
224 224 224 223 223 222 222 221 221 220 219 219 219 219 219 218 218 217 215 212 210 208 206 203 200 198 197 198 198 199 201 203 207 211 214 216 218 216 215 217 221 223 217 199 187 186 191 196 199 201 202 203 205 207 209 210 209 208 209 210 210 212 217 223 230 235 240 245 251